This demonstration page uses our WeatherBlox Daily Observations layout. Learn more.

38.89511, -77.03637

Hourly Observations for June 12, 2020

Temp ( °F °C ) Dew Point ( °F °C ) Humidity (%) Winds ( mph kmh ) Pressure ( in mb ) Visibility ( mi km ) Precip ( " mm )
12:52 am 00:52 Cloudy 77 25 60 15.6 56 56 NNW 9 15 30.13 1020 10 16.0934 0 0
1:52 am 01:52 Cloudy 77 25 57 13.9 50 50 NW 13 20 30.13 1020 10 16.0934 0 0
2:52 am 02:52 Mostly Cloudy 74 23.3 57 13.9 56 56 NNW 9 15 30.13 1020 10 16.0934 0 0
3:52 am 03:52 Mostly Cloudy 73 22.8 56 13.3 55 55 NNW 9 15 30.14 1021 10 16.0934 0 0
4:52 am 04:52 Partly Cloudy 71 21.7 56 13.3 59 59 NNW 9 15 30.14 1021 10 16.0934 0 0
5:52 am 05:52 Partly Cloudy 69 20.6 57 13.9 66 66 NNW 8 13 30.16 1021 10 16.0934 0 0
6:52 am 06:52 Mostly Sunny 70 21.1 58 14.4 66 66 NNW 7 11 30.17 1022 10 16.0934 0 0
7:52 am 07:52 Mostly Sunny 74 23.3 58 14.4 57 57 N 8 13 30.17 1022 10 16.0934 0 0
8:52 am 08:52 Mostly Sunny 77 25 57 13.9 50 50 NNW 9 15 30.17 1022 10 16.0934 0 0
9:52 am 09:52 Mostly Sunny 79 26.1 57 13.9 47 47 N 9 15 30.16 1022 10 16.0934 0 0
10:52 am 10:52 Mostly Sunny 82 27.8 56 13.3 41 41 NW 12 19 30.16 1021 10 16.0934 0 0
11:52 am 11:52 Mostly Sunny 83 28.3 54 12.2 37 37 NW 10 17 30.15 1021 10 16.0934 0 0
12:52 pm 12:52 Mostly Sunny 84 28.9 52 11.1 33 33 NNW 12 19 30.14 1021 10 16.0934 0 0
1:52 pm 13:52 Mostly Sunny 86 30 53 11.7 32 32 NNW 9 15 30.13 1020 10 16.0934 0 0
2:52 pm 14:52 Mostly Sunny 87 30.6 54 12.2 32 32 NNW 9 15 30.11 1020 10 16.0934 0 0
3:52 pm 15:52 Partly Cloudy 87 30.6 53 11.7 31 31 NNW 5 7 30.09 1019 10 16.0934 0 0
4:52 pm 16:52 Partly Cloudy 86 30 53 11.7 32 32 WNW 6 9 30.07 1018 10 16.0934 0 0
5:52 pm 17:52 Partly Cloudy 85 29.4 52 11.1 32 32 WNW 9 15 30.06 1018 10 16.0934 0 0
6:52 pm 18:52 Partly Cloudy 84 28.9 51 10.6 32 32 NW 5 7 30.06 1018 10 16.0934 0 0
7:52 pm 19:52 Mostly Sunny 83 28.3 53 11.7 36 36 WNW 7 11 30.06 1018 10 16.0934 0 0
8:52 pm 20:52 Mostly Clear 81 27.2 53 11.7 38 38 NW 13 20 30.07 1018 10 16.0934 0 0
9:52 pm 21:52 Clear 78 25.6 55 12.8 45 45 NNW 9 15 30.08 1019 10 16.0934 0 0
10:52 pm 22:52 Clear 76 24.4 53 11.7 45 45 NNW 12 19 30.1 1019 10 16.0934 0 0
11:52 pm 23:52 Clear 75 23.9 51 10.6 43 43 NNW 9 15 30.11 1020 10 16.0934 0 0

Powered by AerisWeather